Check out our new BloomSky Weather System.

Active alerts

Houston, TX
  Details for Houston, TX Dense Fog Advisory


Thunder radar  blitzortung!


Rain radar more information rain snow radar


Visit our other weather sites:

Template documentation
and downloads

And another site



Weather Underground History page Text

Daily Summary for May 4, 2017 Units:  Metric    English   Both
« Previous Day
Next Day »
Daily Weekly Monthly Yearly Custom
  High: Low: Average:
Temperature: 23.9 °C 13.1 °C 18 °C
Dew Point: 12.9 °C 4.9 °C 9.4 °C
Humidity: 83 % 30 % 61 %
Wind Speed: 27.4 km/h 0 km/h 6.9 km/h
Wind Gust: 43.5 km/h - -
Wind:- - WNW
Pressure: 1016.5 hPa 1010.7 hPa -
Precipitation: 0 mm    
Historical Graphs
 
 
Tabular Data for May 4, 2017
Time Temperature Dew Point Pressure Wind Wind Speed Wind Gust Humidity Rainfall Rate (Hourly)
00:02 17.7 °C 12.8 °C 1012.1 hPa North 12.9 km/h 25.7 km/h 73 % 0 mm
00:07 17.7 °C 12.8 °C 1012.1 hPa NW 8 km/h 25.7 km/h 73 % 0 mm
00:12 17.6 °C 12.9 °C 1011.7 hPa WNW 11.3 km/h 25.7 km/h 74 % 0 mm
00:17 17.6 °C 12.9 °C 1011.7 hPa NW 6.4 km/h 25.7 km/h 74 % 0 mm
00:22 17.4 °C 12.9 °C 1011.7 hPa NNW 11.3 km/h 25.7 km/h 75 % 0 mm
00:27 17.4 °C 12.9 °C 1011.7 hPa NNW 6.4 km/h 25.7 km/h 75 % 0 mm
00:32 17.4 °C 12.9 °C 1011.7 hPa WNW 11.3 km/h 20.9 km/h 75 % 0 mm
00:37 17.4 °C 12.9 °C 1011.7 hPa SE 9.7 km/h 20.9 km/h 75 % 0 mm
00:42 17.3 °C 12.8 °C 1012.1 hPa NNW 3.2 km/h 22.5 km/h 75 % 0 mm
00:47 17.3 °C 12.8 °C 1012.1 hPa WNW 19.3 km/h 22.5 km/h 75 % 0 mm
00:52 17.3 °C 12.8 °C 1012.1 hPa NE 8 km/h 24.1 km/h 75 % 0 mm
00:57 17.2 °C 12.7 °C 1012.1 hPa WNW 9.7 km/h 24.1 km/h 75 % 0 mm
01:02 17.2 °C 12.7 °C 1012.1 hPa WNW 12.9 km/h 24.1 km/h 75 % 0 mm
01:07 17.1 °C 12.6 °C 1011.7 hPa WNW 9.7 km/h 19.3 km/h 75 % 0 mm
01:12 17.1 °C 12.6 °C 1011.7 hPa NW 6.4 km/h 19.3 km/h 75 % 0 mm
01:17 17 °C 12.5 °C 1011.7 hPa WNW 6.4 km/h 17.7 km/h 75 % 0 mm
01:22 16.9 °C 12.6 °C 1011.7 hPa NNE 12.9 km/h 20.9 km/h 76 % 0 mm
01:27 16.9 °C 12.6 °C 1011.7 hPa NW 4.8 km/h 20.9 km/h 76 % 0 mm
01:32 16.8 °C 12.7 °C 1011.7 hPa NW 6.4 km/h 20.9 km/h 77 % 0 mm
01:37 16.7 °C 12.6 °C 1011.4 hPa WNW 1.6 km/h 16.1 km/h 77 % 0 mm
01:42 16.7 °C 12.6 °C 1011.7 hPa WNW 9.7 km/h 16.1 km/h 77 % 0 mm
01:47 16.6 °C 12.6 °C 1011.4 hPa West 6.4 km/h 20.9 km/h 77 % 0 mm
01:52 16.6 °C 12.6 °C 1011.4 hPa WNW 6.4 km/h 24.1 km/h 77 % 0 mm
01:57 16.6 °C 12.4 °C 1011.4 hPa NNW 27.4 km/h 27.4 km/h 76 % 0 mm
02:02 16.6 °C 12.1 °C 1011.7 hPa NW 8 km/h 30.6 km/h 75 % 0 mm
02:07 16.6 °C 12.1 °C 1011.4 hPa NW 12.9 km/h 30.6 km/h 75 % 0 mm
02:12 16.4 °C 12 °C 1011.4 hPa WNW 6.4 km/h 30.6 km/h 75 % 0 mm
02:17 16.4 °C 11.8 °C 1011.1 hPa WNW 12.9 km/h 25.7 km/h 74 % 0 mm
02:22 16.4 °C 11.5 °C 1011.4 hPa NW 4.8 km/h 25.7 km/h 73 % 0 mm
02:27 16.5 °C 11.6 °C 1011.1 hPa North 9.7 km/h 27.4 km/h 73 % 0 mm
02:32 16.4 °C 11.5 °C 1011.1 hPa NW 3.2 km/h 27.4 km/h 73 % 0 mm
02:37 16.3 °C 11.7 °C 1011.1 hPa NNW 9.7 km/h 27.4 km/h 74 % 0 mm
02:42 16.3 °C 11.7 °C 1011.1 hPa NNW 9.7 km/h 22.5 km/h 74 % 0 mm
02:48 16.2 °C 11.6 °C 1011.1 hPa NNW 9.7 km/h 22.5 km/h 74 % 0 mm
02:49 16.1 °C 11.5 °C 1011.1 hPa NW 11.3 km/h 22.5 km/h 74 % 0 mm
02:54 16.1 °C 11.5 °C 1011.1 hPa WNW 14.5 km/h 22.5 km/h 74 % 0 mm
02:59 16.1 °C 11.3 °C 1010.7 hPa NW 16.1 km/h 24.1 km/h 73 % 0 mm
03:04 16.1 °C 11.1 °C 1011.1 hPa North 16.1 km/h 30.6 km/h 72 % 0 mm
03:09 16.1 °C 11.1 °C 1011.1 hPa North 11.3 km/h 30.6 km/h 72 % 0 mm
03:14 16.2 °C 10.9 °C 1011.4 hPa NW 8 km/h 30.6 km/h 71 % 0 mm
03:19 16.1 °C 10.8 °C 1011.7 hPa North 11.3 km/h 27.4 km/h 71 % 0 mm
03:24 16.1 °C 10.8 °C 1011.7 hPa NNW 6.4 km/h 27.4 km/h 71 % 0 mm
03:29 16 °C 10.7 °C 1011.7 hPa NW 9.7 km/h 27.4 km/h 71 % 0 mm
03:34 16.1 °C 10.8 °C 1012.1 hPa NE 8 km/h 25.7 km/h 71 % 0 mm
03:39 16 °C 10.7 °C 1011.7 hPa WNW 12.9 km/h 20.9 km/h 71 % 0 mm
03:44 15.9 °C 10.6 °C 1012.1 hPa NNW 8 km/h 20.9 km/h 71 % 0 mm
03:50 15.8 °C 10.6 °C 1011.7 hPa NW 11.3 km/h 20.9 km/h 71 % 0 mm
03:55 15.8 °C 10.6 °C 1012.1 hPa North 9.7 km/h 20.9 km/h 71 % 0 mm
04:00 15.7 °C 10.2 °C 1011.7 hPa NW 11.3 km/h 20.9 km/h 70 % 0 mm
04:05 15.7 °C 10.2 °C 1011.7 hPa WNW 3.2 km/h 17.7 km/h 70 % 0 mm
04:10 15.6 °C 10.1 °C 1011.7 hPa NW 9.7 km/h 17.7 km/h 70 % 0 mm
04:15 15.6 °C 10.4 °C 1012.1 hPa NW 11.3 km/h 17.7 km/h 71 % 0 mm
04:20 15.5 °C 10.3 °C 1011.7 hPa NNE 3.2 km/h 17.7 km/h 71 % 0 mm
04:25 15.4 °C 10.4 °C 1012.4 hPa WNW 6.4 km/h 17.7 km/h 72 % 0 mm
04:30 15.2 °C 10.4 °C 1012.4 hPa Calm   12.9 km/h 73 % 0 mm
04:35 15.2 °C 10.4 °C 1012.8 hPa WNW 1.6 km/h 12.9 km/h 73 % 0 mm
04:40 15.1 °C 10.5 °C 1012.8 hPa NNW 3.2 km/h 12.9 km/h 74 % 0 mm
04:45 14.9 °C 10.5 °C 1013.1 hPa WNW 3.2 km/h 12.9 km/h 75 % 0 mm
04:50 14.9 °C 10.5 °C 1013.1 hPa North 3.2 km/h 9.7 km/h 75 % 0 mm
04:55 14.8 °C 10.4 °C 1013.4 hPa NW 3.2 km/h 9.7 km/h 75 % 0 mm
05:00 14.7 °C 10.5 °C 1013.4 hPa Calm   8 km/h 76 % 0 mm
05:05 14.4 °C 10.4 °C 1013.8 hPa Calm   4.8 km/h 77 % 0 mm
05:10 14.3 °C 10.5 °C 1013.4 hPa NW 1.6 km/h 4.8 km/h 78 % 0 mm
05:15 14.2 °C 10.4 °C 1013.4 hPa Calm   3.2 km/h 78 % 0 mm
05:20 14.2 °C 10.6 °C 1013.8 hPa Calm   6.4 km/h 79 % 0 mm
05:25 14.1 °C 10.5 °C 1013.8 hPa WNW 1.6 km/h 6.4 km/h 79 % 0 mm
05:30 13.9 °C 10.5 °C 1013.4 hPa WSW 1.6 km/h 6.4 km/h 80 % 0 mm
05:35 13.8 °C 10.4 °C 1013.4 hPa Calm   3.2 km/h 80 % 0 mm
05:40 13.6 °C 10.4 °C 1013.8 hPa Calm   3.2 km/h 81 % 0 mm
05:45 13.5 °C 10.5 °C 1013.4 hPa WNW 1.6 km/h 3.2 km/h 82 % 0 mm
05:50 13.4 °C 10.4 °C 1013.1 hPa Calm   4.8 km/h 82 % 0 mm
05:55 13.3 °C 10.5 °C 1013.4 hPa West 4.8 km/h 4.8 km/h 83 % 0 mm
06:00 13.3 °C 10.5 °C 1013.4 hPa NNW 1.6 km/h 6.4 km/h 83 % 0 mm
06:05 13.3 °C 10.5 °C 1013.4 hPa WNW 1.6 km/h 6.4 km/h 83 % 0 mm
06:10 13.3 °C 10.3 °C 1013.1 hPa Calm   6.4 km/h 82 % 0 mm
06:15 13.2 °C 10.2 °C 1013.4 hPa NW 1.6 km/h 4.8 km/h 82 % 0 mm
06:20 13.2 °C 10.4 °C 1013.4 hPa NW 1.6 km/h 4.8 km/h 83 % 0 mm
06:25 13.3 °C 10.3 °C 1013.4 hPa Calm   4.8 km/h 82 % 0 mm
06:30 13.2 °C 10.2 °C 1013.4 hPa Calm   4.8 km/h 82 % 0 mm
06:35 13.1 °C 10.3 °C 1013.8 hPa Calm   4.8 km/h 83 % 0 mm
06:40 13.2 °C 10.4 °C 1013.8 hPa NNW 3.2 km/h 11.3 km/h 83 % 0 mm
06:45 13.1 °C 10.3 °C 1013.8 hPa NNW 3.2 km/h 11.3 km/h 83 % 0 mm
06:50 13.1 °C 10.3 °C 1013.8 hPa Calm   11.3 km/h 83 % 0 mm
06:55 13.1 °C 10.3 °C 1014.1 hPa NW 3.2 km/h 6.4 km/h 83 % 0 mm
07:00 13.2 °C 10.4 °C 1014.1 hPa NW 1.6 km/h 6.4 km/h 83 % 0 mm
07:05 13.3 °C 10.3 °C 1014.4 hPa NNW 3.2 km/h 9.7 km/h 82 % 0 mm
07:10 13.5 °C 10.3 °C 1014.4 hPa NW 9.7 km/h 9.7 km/h 81 % 0 mm
07:15 13.7 °C 10.5 °C 1014.8 hPa NW 3.2 km/h 9.7 km/h 81 % 0 mm
07:20 13.8 °C 10.4 °C 1014.8 hPa NW 3.2 km/h 9.7 km/h 80 % 0 mm
07:25 14 °C 10.6 °C 1014.8 hPa NW 4.8 km/h 9.7 km/h 80 % 0 mm
07:30 14.2 °C 10.6 °C 1014.8 hPa NNW 1.6 km/h 9.7 km/h 79 % 0 mm
07:35 14.4 °C 10.6 °C 1014.8 hPa NW 1.6 km/h 9.7 km/h 78 % 0 mm
07:40 14.6 °C 10.6 °C 1015.1 hPa NW 6.4 km/h 9.7 km/h 77 % 0 mm
07:45 14.8 °C 10.8 °C 1015.1 hPa NNW 4.8 km/h 8 km/h 77 % 0 mm
07:50 15 °C 10.6 °C 1015.5 hPa Calm   8 km/h 75 % 0 mm
07:55 15.1 °C 10.5 °C 1015.5 hPa WNW 4.8 km/h 8 km/h 74 % 0 mm
08:00 15.2 °C 10.2 °C 1015.5 hPa NW 4.8 km/h 17.7 km/h 72 % 0 mm
08:05 15.3 °C 10.1 °C 1015.8 hPa NW 9.7 km/h 17.7 km/h 71 % 0 mm
08:10 15.3 °C 10.1 °C 1015.8 hPa WNW 6.4 km/h 20.9 km/h 71 % 0 mm
08:15 15.5 °C 10.3 °C 1015.8 hPa NW 9.7 km/h 20.9 km/h 71 % 0 mm
08:20 15.6 °C 10.4 °C 1015.8 hPa NW 12.9 km/h 20.9 km/h 71 % 0 mm
08:25 15.7 °C 9.8 °C 1015.8 hPa West 3.2 km/h 24.1 km/h 68 % 0 mm
08:30 15.9 °C 10 °C 1016.1 hPa NW 22.5 km/h 24.1 km/h 68 % 0 mm
08:35 15.9 °C 9.8 °C 1016.1 hPa NW 8 km/h 30.6 km/h 67 % 0 mm
10:23 23.1 °C 6.4 °C 1013.8 hPa NW 25.7 km/h 30.6 km/h 34 % 0 mm
10:24 23.1 °C 5.5 °C 1013.8 hPa NNW 16.1 km/h 30.6 km/h 32 % 0 mm
10:25 23 °C 5.9 °C 1013.4 hPa SW 17.7 km/h 30.6 km/h 33 % 0 mm
10:26 22.9 °C 5.8 °C 1013.8 hPa NW 20.9 km/h 27.4 km/h 33 % 0 mm
15:28 22.9 °C 5.3 °C 1013.8 hPa NW 17.7 km/h 27.4 km/h 32 % 0 mm
15:33 22.9 °C 4.9 °C 1013.8 hPa West 19.3 km/h 27.4 km/h 31 % 0 mm
15:38 22.9 °C 4.9 °C 1013.4 hPa NW 16.1 km/h 43.5 km/h 31 % 0 mm
15:43 23.2 °C 5.6 °C 1013.4 hPa WNW 6.4 km/h 43.5 km/h 32 % 0 mm
15:48 23.3 °C 5.7 °C 1013.4 hPa NNW 12.9 km/h 43.5 km/h 32 % 0 mm
15:53 23.3 °C 5.2 °C 1013.4 hPa NW 14.5 km/h 30.6 km/h 31 % 0 mm
15:58 23.4 °C 5.8 °C 1013.4 hPa NW 12.9 km/h 29 km/h 32 % 0 mm
16:03 23.7 °C 6.5 °C 1013.4 hPa NW 19.3 km/h 29 km/h 33 % 0 mm
16:08 23.5 °C 6.3 °C 1013.1 hPa NW 19.3 km/h 29 km/h 33 % 0 mm
16:13 23.4 °C 6.2 °C 1013.4 hPa North 9.7 km/h 27.4 km/h 33 % 0 mm
16:18 23.6 °C 6.4 °C 1013.4 hPa WNW 6.4 km/h 27.4 km/h 33 % 0 mm
16:23 23.9 °C 5.7 °C 1013.4 hPa WNW 25.7 km/h 27.4 km/h 31 % 0 mm
16:28 23.7 °C 5.6 °C 1013.1 hPa WNW 9.7 km/h 30.6 km/h 31 % 0 mm
16:33 23.7 °C 6.9 °C 1013.1 hPa NNE 9.7 km/h 30.6 km/h 34 % 0 mm
16:38 23.8 °C 5.7 °C 1013.4 hPa SW 9.7 km/h 30.6 km/h 31 % 0 mm
16:43 23.7 °C 6 °C 1013.1 hPa NW 14.5 km/h 27.4 km/h 32 % 0 mm
16:48 23.5 °C 4.9 °C 1013.4 hPa NW 24.1 km/h 25.7 km/h 30 % 0 mm
16:53 23.4 °C 5.8 °C 1013.1 hPa NNW 22.5 km/h 30.6 km/h 32 % 0 mm
16:58 23.3 °C 5.7 °C 1013.1 hPa WNW 24.1 km/h 30.6 km/h 32 % 0 mm
17:03 23.6 °C 5.5 °C 1013.1 hPa WNW 6.4 km/h 37 km/h 31 % 0 mm
17:08 23.5 °C 5.4 °C 1013.1 hPa NNE 16.1 km/h 37 km/h 31 % 0 mm
17:09 23.5 °C 5.4 °C 1013.1 hPa NNW 11.3 km/h 37 km/h 31 % 0 mm
17:14 23.4 °C 5.8 °C 1013.1 hPa WNW 12.9 km/h 37 km/h 32 % 0 mm
17:19 23.3 °C 5.7 °C 1013.4 hPa North 12.9 km/h 38.6 km/h 32 % 0 mm
17:24 23.3 °C 5.7 °C 1013.4 hPa NNW 14.5 km/h 38.6 km/h 32 % 0 mm
17:29 23.3 °C 6.1 °C 1013.4 hPa NW 22.5 km/h 38.6 km/h 33 % 0 mm
17:34 23.4 °C 6.2 °C 1013.4 hPa NNW 12.9 km/h 29 km/h 33 % 0 mm
17:39 23.5 °C 5.9 °C 1013.8 hPa WNW 14.5 km/h 29 km/h 32 % 0 mm
17:44 23.5 °C 6.3 °C 1013.8 hPa NW 8 km/h 32.2 km/h 33 % 0 mm
17:49 23.3 °C 5.7 °C 1013.8 hPa NNW 14.5 km/h 32.2 km/h 32 % 0 mm
17:54 23.3 °C 6.1 °C 1013.8 hPa WNW 11.3 km/h 32.2 km/h 33 % 0 mm
17:59 23.3 °C 6.1 °C 1013.8 hPa NW 16.1 km/h 29 km/h 33 % 0 mm
18:04 23.3 °C 6.6 °C 1013.8 hPa NNW 9.7 km/h 32.2 km/h 34 % 0 mm
18:09 23.3 °C 6.6 °C 1013.8 hPa NW 11.3 km/h 32.2 km/h 34 % 0 mm
18:14 23.2 °C 6.9 °C 1013.8 hPa WNW 11.3 km/h 32.2 km/h 35 % 0 mm
18:19 23.2 °C 6.5 °C 1013.8 hPa NW 11.3 km/h 24.1 km/h 34 % 0 mm
18:24 23.2 °C 6.5 °C 1013.8 hPa WNW 12.9 km/h 25.7 km/h 34 % 0 mm
18:29 23.1 °C 6.4 °C 1013.8 hPa WSW 16.1 km/h 25.7 km/h 34 % 0 mm
18:34 23.1 °C 6.8 °C 1014.1 hPa NW 6.4 km/h 25.7 km/h 35 % 0 mm
18:39 22.9 °C 6.6 °C 1014.1 hPa NW 8 km/h 25.7 km/h 35 % 0 mm
18:44 22.9 °C 6.6 °C 1014.1 hPa NE 6.4 km/h 25.7 km/h 35 % 0 mm
18:49 22.9 °C 7 °C 1014.1 hPa NW 6.4 km/h 25.7 km/h 36 % 0 mm
18:54 22.8 °C 6.9 °C 1014.4 hPa NNW 9.7 km/h 24.1 km/h 36 % 0 mm
18:59 22.9 °C 7.4 °C 1014.4 hPa NW 9.7 km/h 22.5 km/h 37 % 0 mm
19:04 22.8 °C 6.9 °C 1014.4 hPa NW 6.4 km/h 22.5 km/h 36 % 0 mm
19:09 22.6 °C 6.8 °C 1014.4 hPa WNW 9.7 km/h 24.1 km/h 36 % 0 mm
19:14 22.4 °C 7 °C 1014.4 hPa NW 16.1 km/h 24.1 km/h 37 % 0 mm
19:19 22.2 °C 7.2 °C 1014.4 hPa NW 8 km/h 24.1 km/h 38 % 0 mm
19:24 22.1 °C 7.1 °C 1014.4 hPa WNW 16.1 km/h 24.1 km/h 38 % 0 mm
19:29 22 °C 7.4 °C 1014.4 hPa NW 8 km/h 22.5 km/h 39 % 0 mm
19:34 21.9 °C 7.3 °C 1014.4 hPa NW 11.3 km/h 20.9 km/h 39 % 0 mm
19:39 21.8 °C 7.2 °C 1014.8 hPa NW 14.5 km/h 20.9 km/h 39 % 0 mm
19:44 21.8 °C 8 °C 1014.8 hPa WNW 3.2 km/h 20.9 km/h 41 % 0 mm
19:49 21.7 °C 7.9 °C 1014.8 hPa NNW 3.2 km/h 20.9 km/h 41 % 0 mm
19:54 21.5 °C 8 °C 1014.8 hPa SSE 1.6 km/h 20.9 km/h 42 % 0 mm
19:59 21.4 °C 8 °C 1014.8 hPa NW 6.4 km/h 14.5 km/h 42 % 0 mm
20:04 21.2 °C 8.1 °C 1015.1 hPa NW 4.8 km/h 16.1 km/h 43 % 0 mm
20:09 21.1 °C 8.4 °C 1015.1 hPa NW 3.2 km/h 16.1 km/h 44 % 0 mm
20:14 20.9 °C 8.2 °C 1015.1 hPa NW 3.2 km/h 16.1 km/h 44 % 0 mm
20:19 20.7 °C 8.3 °C 1015.5 hPa NW 1.6 km/h 9.7 km/h 45 % 0 mm
20:24 20.5 °C 8.2 °C 1015.5 hPa NW 1.6 km/h 6.4 km/h 45 % 0 mm
20:29 20.3 °C 8.3 °C 1015.5 hPa Calm   6.4 km/h 46 % 0 mm
20:34 20 °C 8.3 °C 1015.5 hPa Calm   4.8 km/h 47 % 0 mm
20:36 19.9 °C 8.3 °C 1015.5 hPa Calm   1.6 km/h 47 % 0 mm
20:41 19.7 °C 8.7 °C 1015.5 hPa Calm   1.6 km/h 49 % 0 mm
20:46 19.4 °C 8.7 °C 1015.5 hPa Calm     50 % 0 mm
20:51 19.1 °C 8.4 °C 1015.5 hPa Calm     50 % 0 mm
20:56 18.7 °C 8.4 °C 1015.5 hPa Calm     51 % 0 mm
21:01 18.4 °C 8.4 °C 1015.8 hPa Calm     52 % 0 mm
21:06 18.1 °C 8.6 °C 1015.8 hPa Calm     54 % 0 mm
21:11 18.1 °C 9.4 °C 1015.8 hPa Calm     57 % 0 mm
21:16 18 °C 9.4 °C 1015.8 hPa Calm     57 % 0 mm
21:21 17.9 °C 9.3 °C 1015.8 hPa Calm     57 % 0 mm
21:26 17.8 °C 9.2 °C 1015.8 hPa Calm     57 % 0 mm
21:31 17.7 °C 9.6 °C 1015.8 hPa Calm     59 % 0 mm
21:36 17.6 °C 9.2 °C 1015.8 hPa Calm     58 % 0 mm
21:41 17.6 °C 9.2 °C 1016.1 hPa Calm     58 % 0 mm
21:47 17.3 °C 9.5 °C 1016.1 hPa Calm     60 % 0 mm
21:52 17.2 °C 9.6 °C 1015.8 hPa Calm     61 % 0 mm
21:57 17.1 °C 9.5 °C 1015.8 hPa Calm     61 % 0 mm
22:02 16.8 °C 9.5 °C 1016.1 hPa Calm     62 % 0 mm
22:07 16.7 °C 9.4 °C 1016.1 hPa Calm     62 % 0 mm
22:12 16.4 °C 9.3 °C 1016.1 hPa Calm     63 % 0 mm
22:17 16.3 °C 9.5 °C 1016.1 hPa Calm     64 % 0 mm
22:22 16.1 °C 9.7 °C 1016.1 hPa Calm     66 % 0 mm
22:27 15.9 °C 9.8 °C 1016.1 hPa Calm     67 % 0 mm
22:32 15.9 °C 10 °C 1016.1 hPa Calm     68 % 0 mm
22:37 15.8 °C 9.9 °C 1016.1 hPa Calm     68 % 0 mm
22:42 15.6 °C 9.9 °C 1016.1 hPa Calm     69 % 0 mm
22:47 15.6 °C 10.1 °C 1016.1 hPa Calm     70 % 0 mm
22:52 15.6 °C 10.1 °C 1016.5 hPa Calm     70 % 0 mm
22:57 15.6 °C 9.9 °C 1016.5 hPa Calm     69 % 0 mm
23:02 15.7 °C 10 °C 1016.5 hPa Calm     69 % 0 mm
23:07 15.7 °C 10.2 °C 1016.5 hPa Calm     70 % 0 mm
23:12 15.8 °C 10.3 °C 1016.5 hPa Calm     70 % 0 mm
23:17 15.7 °C 10.5 °C 1016.5 hPa Calm     71 % 0 mm
23:22 15.6 °C 10.4 °C 1016.5 hPa Calm     71 % 0 mm
23:27 15.4 °C 10.4 °C 1016.5 hPa Calm     72 % 0 mm
23:32 15.4 °C 10.6 °C 1016.5 hPa Calm     73 % 0 mm
23:37 15.3 °C 10.5 °C 1016.5 hPa Calm     73 % 0 mm
23:42 15.2 °C 10.6 °C 1016.5 hPa Calm     74 % 0 mm
23:47 15.2 °C 10.6 °C 1016.5 hPa Calm     74 % 0 mm
23:52 15.1 °C 10.5 °C 1016.5 hPa Calm     74 % 0 mm
23:57 15 °C 10.6 °C 1016.5 hPa Calm     75 % 0 mm
Spring, Texas: Villages of Bridgestone
Compliments of Weather Underground - 2.5 mb

Script developed by  Jim McMurry - jmcmurry@mwt.net Adapted for the template by  Wim van der Kuil - Leuven-Template.eu

You find our weather info also at:

UK Metoffice

WeatherCloud

Weather Underground

Mid-South Weather Network

AWEKAS

Citizen Weather Observer Program (CWOP)

HAMweather, WeatherForYou, PWS Weather

Equipment we use:

Weather-station
Davis Vantage Vue

Weather-program
Meteohub

Weather-server
Debian 7.9 x86 (Guest)

Provider
DreamHost

Davis Vantage Vue

Meteohub

Debian 7.9 x86 (Guest)

DreamHost